CAPE
0 0 0 0 0 12 18 0 2 297 886 1036 1095 1056 1133 1169 935 460 669 780 525 827 1433 1979 2393 2092 1781 1512 1307 1108 1194 1143 1001 980 1099 1200 1222 1132 1101 1404 1386 1077 1216 1263 1194 1078 882 683 577
0 0 0 0 0 0 11 2 467 622 1013 987 1011 1127 1238 1278 1020 822 674 500 483 865 1079 1618 2249 2230 1822 1597 1501 1551 1418 1238 1036 946 931 1070 1164 1092 936 1009 914 1029 1222 1263 1175 1064 990 951 881
0 0 0 0 0 0 2 8 321 556 1087 1021 1223 1171 1192 1364 1043 786 264 81 305 500 737 1281 1922 2136 1787 1636 1556 1707 1637 1531 1156 1009 947 947 956 1051 956 878 938 1074 1130 1163 1198 1242 1285 1238 1210
0 0 0 0 0 0 0 7 86 663 715 992 1161 1272 1354 1398 1269 1060 120 175 183 426 733 1420 1758 1857 1636 1503 1583 1759 1622 1548 1343 1120 1063 1082 1032 975 833 801 831 824 794 773 804 938 1085 1097 1246
0 0 0 0 0 2 17 136 509 654 1113 1101 1149 1287 1417 1434 1300 1054 996 844 329 475 772 1089 1739 1735 1561 1139 1210 1532 1438 1286 1264 1142 951 829 733 684 693 841 955 848 841 837 853 1447 1664 1690 1577
0 0 0 0 0 148 108 77 513 987 970 1207 1300 1405 1399 1455 1233 1329 1121 372 520 685 722 910 1548 1817 1762 1623 1505 1393 1260 1111 991 845 809 847 882 903 956 1046 1220 1394 1489 1432 1347 1655 1628 1592 1593
0 0 0 0 0 15 457 357 834 701 1079 1200 1300 1459 1597 1529 1475 1427 1054 550 890 1003 1070 1152 1263 1295 1580 1622 1521 1479 1410 1342 1226 825 317 311 529 948 1384 1527 1647 1810 1949 2034 2010 1941 1892 1780 1765
0 0 0 0 0 0 572 730 522 327 452 1079 1304 1397 1649 1587 1576 1404 1217 707 787 1125 1165 1193 1251 1279 1193 1414 1887 1747 1493 1066 382 144 0 0 57 859 839 210 498 1244 867 1341 1554 1406 1076 683 478
0 0 1 5 4 9 132 618 379 221 444 1183 1393 1384 1606 1820 1615 1535 1250 678 825 1059 931 1059 1043 885 836 965 1166 1351 957 386 58 0 0 0 0 0 0 0 0 1 0 15 138 157 14 0 0
0 0 0 26 23 67 273 327 366 247 542 966 1242 1464 1819 1963 1774 1720 1264 550 1111 1077 749 764 612 520 470 715 756 132 173 0 0 0 0 0 0 0 0 0 0 0 0 0 0 0 0 0 0
0 0 0 0 0 44 63 151 194 173 682 949 1117 1504 1918 2019 1877 1854 1417 588 1139 1025 750 607 464 411 199 287 171 7 15 0 0 0 0 0 0 0 0 0 0 0 0 0 0 0 0 0 0
0 0 0 0 0 0 0 70 100 312 641 903 1242 1526 1928 2068 2038 1936 1653 820 1068 1210 1105 1001 714 369 90 41 0 0 0 0 0 0 0 0 0 0 0 0 0 0 0 0 0 0 0 0 0
0 0 0 0 0 0 0 0 359 446 664 1086 1431 1511 2027 2142 2101 1986 1785 921 1131 1240 1324 1377 1181 376 100 0 0 0 0 0 0 0 0 0 0 0 0 0 0 0 0 0 0 0 0 0 0
0 0 0 0 0 0 0 2 611 553 905 1158 1250 1406 1789 1985 1850 1323 1759 942 987 1087 1 0 909 704 195 0 0 0 0 0 0 0 0 0 0 0 0 0 0 0 0 0 0 0 0 0 0
0 0 0 0 0 0 0 263 492 646 1062 1310 1026 996 1198 1242 394 442 697 950 484 0 0 0 4 0 0 0 0 0 0 0 0 0 0 0 0 0 0 0 0 0 0 0 0 0 0 0 0
0 0 0 0 0 9 18 81 156 697 1150 740 620 688 798 758 510 457 738 335 109 0 0 0 0 0 0 0 0 0 0 0 0 0 0 0 0 0 0 0 0 0 0 0 0 0 0 0 0
0 0 0 0 0 0 0 0 81 759 705 367 522 529 631 202 6 478 386 388 13 0 0 0 0 0 0 0 0 0 3 1 6 6 3 2 0 0 0 0 0 0 0 0 0 0 0 0 0
0 0 0 0 0 0 0 0 56 531 459 378 428 479 469 91 0 123 343 433 0 0 0 0 0 0 0 0 14 57 74 89 93 63 28 5 0 0 0 0 0 0 0 0 0 0 0 0 0
0 0 0 0 0 0 0 0 34 492 483 387 390 479 64 0 0 100 276 0 0 0 0 0 0 7 29 105 213 264 226 191 196 214 174 106 24 0 0 0 0 0 0 0 0 0 0 0 0
0 0 0 0 0 0 0 0 0 286 431 398 404 264 16 0 0 0 0 1 0 0 0 10 42 99 227 318 418 408 417 421 401 367 248 93 0 0 0 0 0 0 0 0 0 0 0 0 0
0 0 0 0 0 0 0 0 0 7 285 165 84 37 6 2 0 0 0 3 1 0 5 78 145 203 279 394 455 432 440 436 445 430 212 0 0 0 0 0 0 0 0 0 0 0 0 0 0
0 0 0 0 0 0 0 0 0 0 0 0 0 4 5 0 7 2 2 2 3 0 32 137 223 266 310 345 373 445 308 379 315 119 0 0 0 0 0 0 0 0 0 0 0 0 0 0 0
0 0 0 0 0 0 0 0 0 0 0 0 0 0 0 0 6 2 9 2 9 29 100 183 223 282 330 345 392 324 222 117 0 0 0 0 0 0 0 0 0 0 0 0 0 0 0 0 0
0 0 0 0 0 0 0 0 0 0 0 0 0 11 2 4 0 0 21 28 72 100 169 229 261 321 352 349 278 161 52 0 0 0 0 0 0 0 0 0 0 0 0 0 0 0 0 0 5
0 0 0 0 0 0 0 0 0 0 0 0 0 0 1 8 5 14 50 101 115 139 216 276 306 405 415 332 143 18 0 0 0 0 0 0 0 0 0 0 0 0 0 0 0 0 0 6 7
0 0 0 0 0 0 0 0 0 0 0 0 19 12 12 16 31 75 126 162 170 212 205 249 355 458 380 143 79 0 0 0 0 0 0 0 0 0 0 0 0 0 0 0 0 0 8 0 3
0 0 0 0 0 0 0 0 0 0 0 0 26 88 42 64 113 196 281 298 370 251 207 324 394 320 189 183 0 1 2 0 0 0 0 0 0 0 0 0 0 0 0 0 0 0 0 3 9
0 0 0 0 0 0 0 0 0 0 0 0 8 146 252 281 343 409 429 458 367 277 222 189 306 302 55 18 10 0 0 0 0 0 0 0 0 0 0 0 0 0 0 0 0 0 8 6 1
0 0 0 0 0 0 0 0 0 0 0 0 34 94 293 416 493 560 604 534 381 27 117 283 64 8 39 10 0 0 0 0 0 0 0 0 0 0 0 0 0 0 0 0 0 0 0 1 0
0 0 0 0 0 0 0 0 11 20 27 27 58 118 211 347 329 359 358 241 149 9 19 23 19 42 0 0 0 0 0 0 0 0 0 0 0 0 0 0 0 0 0 5 0 0 0 0 4
CIN
0 0 0 0 0 -123 -87 0 -244 -166 -112 -77 -54 -60 -95 -96 -66 -42 -36 -4 -97 -192 -112 -65 -40 -73 -100 -120 -140 -153 -133 -136 -147 -139 -115 -89 -74 -75 -67 -29 -26 -38 -25 -20 -24 -30 -44 -55 -62
0 0 0 0 0 0 -96 -30 -116 -113 -125 -118 -76 -69 -96 -78 -125 -75 -49 -59 -270 -192 -155 -101 -55 -60 -96 -110 -107 -96 -110 -122 -137 -142 -129 -103 -81 -75 -78 -61 -58 -38 -20 -20 -25 -27 -27 -24 -26
0 0 0 0 0 0 -64 -68 -149 -180 -129 -94 -98 -69 -91 -92 -77 -90 -192 -459 -352 -267 -213 -130 -74 -62 -89 -95 -89 -70 -69 -75 -106 -111 -112 -104 -85 -64 -65 -57 -42 -26 -19 -19 -16 -13 -5 -8 -14
0 0 0 0 0 0 0 -95 -325 -240 -236 -85 -89 -77 -89 -83 -105 -107 -167 -414 -453 -333 -219 -107 -78 -75 -95 -97 -85 -64 -68 -63 -70 -85 -90 -78 -81 -78 -78 -77 -60 -52 -46 -46 -43 -24 -14 -14 -4
0 0 0 0 0 -62 -225 -195 -186 -260 -120 -114 -87 -109 -113 -68 -67 -73 -68 -50 -387 -326 -231 -156 -83 -83 -93 -132 -118 -77 -80 -89 -81 -85 -102 -119 -131 -127 -117 -78 -59 -60 -47 -44 -41 -9 -2 -1 -1
0 0 0 0 0 -184 -205 -128 -62 -101 -107 -92 -100 -119 -100 -122 -63 -69 -68 -333 -288 -277 -271 -217 -115 -77 -73 -77 -85 -93 -103 -108 -114 -132 -129 -123 -111 -104 -88 -68 -36 -24 -18 -21 -20 -8 -6 -4 -2
0 0 0 0 0 -50 -161 -125 -133 -157 -133 -131 -101 -129 -98 -77 -40 -61 -48 -269 -232 -243 -235 -207 -168 -142 -93 -85 -93 -93 -96 -93 -96 -144 -240 -229 -170 -104 -42 -37 -29 -20 -14 -14 -14 -10 -11 -13 -12
0 0 0 -3 0 0 -112 -60 -147 -132 -160 -145 -124 -114 -102 -100 -80 -57 -28 -243 -265 -236 -236 -223 -188 -160 -164 -126 -66 -77 -100 -142 -233 -283 0 0 -354 -108 -86 -184 -110 -41 -46 -34 -30 -34 -43 -53 -56
0 0 -29 -24 -14 -162 -215 -106 -40 -39 -143 -145 -106 -122 -114 -72 -55 -40 -51 -48 -55 -66 -272 -243 -228 -237 -228 -197 -156 -134 -158 -234 -288 0 0 0 0 0 0 0 0 -21 0 -187 -71 -61 -156 0 0
0 0 -13 -86 -100 -195 -168 -85 -45 -33 -130 -118 -83 -92 -83 -73 -68 -40 -64 -82 -71 -99 -287 -279 -314 -321 -320 -240 -234 -335 -317 0 0 0 0 0 0 0 0 0 0 0 0 0 0 0 0 0 0
0 0 0 0 0 -190 -141 -97 -71 -166 -119 -89 -124 -98 -81 -82 -60 -57 -68 -75 -65 -108 -260 -316 -347 -358 -376 -283 -335 -387 -409 0 0 0 0 0 0 0 0 0 0 0 0 0 0 0 0 0 0
0 0 0 0 0 0 0 -97 -73 -174 -106 -95 -76 -84 -81 -91 -89 -42 -48 -114 -79 -118 -174 -214 -306 -342 -368 -327 0 0 -6 0 0 0 0 0 0 0 0 0 0 0 0 0 0 0 0 0 0
0 0 0 0 0 0 0 0 -164 -151 -104 -128 -61 -99 -86 -88 -88 -41 -22 -59 -75 -119 -120 -135 -185 -264 -278 0 0 0 0 0 0 0 0 0 0 0 0 0 0 0 0 0 0 0 0 0 0
0 0 0 0 0 0 0 -96 -90 -110 -124 -110 -94 -99 -86 -78 -94 -99 -29 -46 -66 -91 -15 0 -142 -160 -208 0 0 0 0 0 0 0 0 0 0 0 0 0 0 0 0 0 0 0 0 0 0
0 0 0 0 0 0 0 -52 -60 -63 -140 -99 -125 -130 -100 -109 -142 -152 -134 -75 -116 0 0 0 -16 0 0 0 0 0 0 0 0 0 0 0 0 0 0 0 0 0 0 0 0 0 0 0 0
0 0 0 0 0 -23 -31 -69 -81 -145 -121 -171 -167 -156 -136 -132 -141 -139 -136 -92 -62 0 0 0 0 0 0 0 0 0 0 0 0 0 0 0 0 0 0 0 0 0 0 0 0 0 0 0 0
0 0 0 0 0 0 0 0 -67 -135 -160 -193 -152 -152 -144 -113 -12 -139 -115 -96 -99 0 0 0 0 0 0 0 0 0 -97 -92 -257 -81 -73 -181 0 0 0 0 0 0 0 0 0 0 0 0 0
0 0 0 0 0 0 0 0 -137 -124 -156 -170 -143 -136 -113 -121 0 -146 -122 -108 0 0 0 0 0 0 0 -16 -260 -260 -203 -159 -125 -119 -119 -127 0 0 0 0 0 0 0 0 0 0 0 0 0
0 0 0 0 0 0 0 0 -193 -115 -133 -126 -123 -119 -116 0 0 -162 -159 0 0 0 0 0 0 -327 -503 -437 -288 -199 -160 -132 -95 -80 -59 -41 -50 0 0 0 0 0 0 0 0 0 0 0 0
0 0 0 0 0 0 0 0 0 -113 -96 -90 -114 -109 -121 0 0 0 0 -14 0 0 0 -134 -484 -580 -357 -262 -197 -151 -105 -77 -77 -56 -38 -34 0 0 0 0 0 0 0 0 0 0 0 0 0
0 0 0 0 0 0 0 0 0 -14 -70 -102 -111 -104 -99 -44 0 0 0 -57 -43 0 -114 -544 -480 -395 -284 -220 -168 -153 -112 -79 -59 -36 -24 0 0 0 0 0 0 0 0 0 0 0 0 0 0
0 0 0 0 0 0 0 0 0 0 0 0 -1 -17 -72 0 -69 -34 -40 -126 -92 0 -537 -441 -386 -298 -252 -200 -157 -97 -86 -63 -41 -38 -1 0 0 0 0 0 0 0 0 0 0 0 0 0 0
0 0 0 0 0 0 0 0 0 0 0 0 0 0 0 0 -63 -28 -79 -58 -66 -558 -448 -375 -320 -277 -217 -186 -124 -92 -68 -41 0 0 0 0 0 0 0 0 0 0 0 0 0 0 0 0 0
0 0 0 0 0 0 0 0 0 0 0 0 -15 -806 -316 -321 0 0 -82 -76 -539 -465 -402 -322 -266 -226 -181 -131 -92 -93 -38 0 0 0 0 0 0 0 0 0 0 0 0 0 0 0 0 0 0
0 0 0 0 0 0 0 0 0 0 0 0 0 0 -196 -861 -809 -710 -609 -544 -459 -372 -285 -268 -185 -136 -113 -106 -79 -30 0 0 0 0 0 0 0 0 0 0 0 0 0 0 0 0 0 0 0
0 0 0 0 0 0 0 0 0 0 0 0 -420 -517 -582 -616 -569 -517 -428 -375 -340 -265 -153 -43 -128 -94 -62 -75 -37 -2 0 0 0 0 0 0 0 0 0 0 0 0 0 0 0 0 0 0 0
0 0 0 0 0 0 0 0 0 0 0 0 -315 -305 -344 -368 -385 -377 -327 -239 -135 -108 -103 -75 -59 -52 -54 -33 0 -15 -86 0 0 0 0 0 0 0 0 0 0 0 0 0 0 0 0 0 -1
0 0 0 0 0 0 0 0 0 0 0 0 -230 -239 -223 -210 -232 -221 -205 -165 -89 -44 -55 -52 -55 -27 -65 -98 -108 0 0 0 0 0 0 0 0 0 0 0 0 0 0 0 0 0 -2 0 0
0 0 0 0 0 0 0 0 0 0 0 0 -227 -204 -184 -163 -114 -127 -84 -73 -48 -51 -79 -48 -39 -63 -101 -119 0 0 0 0 0 0 0 0 0 0 0 0 0 0 0 0 0 0 0 0 0
0 0 0 0 0 0 0 0 -80 -54 -46 -48 -234 -172 -129 -128 -102 -106 -78 -68 -80 -19 -8 -22 -78 -45 -5 0 0 0 0 0 0 0 0 0 0 0 0 0 0 0 0 0 0 0 0 0 0
Wind_Speed
nan nan nan nan nan nan nan nan nan 15 9 11 18 15 17 12 15 19 16 26 28 19 11 8 11 16 15 15 16 18 19 19 20 21 22 23 22 23 21 20 20 19 20 20 19 20 20 19 19
nan nan nan nan nan nan nan nan 11 26 16 26 14 17 18 18 19 29 27 21 19 15 9 9 15 15 17 16 16 17 19 19 21 21 21 22 22 23 23 22 23 23 22 23 22 23 22 22 22
nan nan nan nan nan nan nan nan 26 18 24 15 16 11 23 27 26 33 24 nan 15 12 10 12 18 18 19 20 20 20 21 22 23 25 25 25 24 24 24 23 23 24 24 22 22 23 22 22 22
nan nan nan nan nan nan nan nan nan 14 10 15 17 17 16 24 30 27 24 19 17 14 11 15 17 19 22 24 24 22 22 21 21 22 22 23 24 24 24 27 27 28 26 25 25 26 26 25 26
nan nan nan nan nan nan nan 7 13 13 12 23 27 22 14 19 26 27 21 20 17 18 17 15 18 19 22 24 25 25 24 24 24 25 25 27 28 30 31 29 30 28 25 27 27 27 27 26 26
nan nan nan nan nan 11 11 nan 15 10 12 22 25 27 26 39 30 27 22 19 18 21 20 19 20 20 22 24 26 27 28 28 28 27 26 28 29 30 29 28 26 27 25 24 26 27 27 28 27
nan nan nan nan nan nan 11 16 14 10 19 24 33 26 28 25 26 26 22 22 21 21 21 18 18 20 22 23 24 24 26 29 30 32 31 32 30 29 26 27 27 27 26 25 23 23 22 21 21
nan nan nan nan nan nan 13 16 11 7 18 17 28 33 32 23 25 22 21 20 20 20 21 20 18 18 19 20 22 23 25 26 27 28 nan nan nan 33 31 27 24 22 22 23 23 25 25 27 29
nan nan nan nan nan nan 15 13 15 6 15 17 24 31 21 34 27 22 20 19 17 17 18 19 20 20 20 20 20 22 23 24 nan nan nan nan nan nan nan nan nan nan nan nan 29 31 nan nan nan
nan nan nan nan nan nan 18 15 14 8 14 14 20 17 31 39 29 24 21 24 24 21 18 16 19 19 17 14 13 12 10 nan nan nan nan nan nan nan nan nan nan nan nan nan nan nan nan nan nan
nan nan nan nan nan nan nan 13 12 14 9 15 27 33 37 37 27 24 24 25 23 21 18 20 17 14 12 9 11 nan nan nan nan nan nan nan nan nan nan nan nan nan nan nan nan nan nan nan nan
nan nan nan nan nan nan nan nan 23 17 11 19 29 35 40 39 31 28 25 24 21 20 19 19 12 13 nan nan nan nan nan nan nan nan nan nan nan nan nan nan nan nan nan nan nan nan nan nan nan
nan nan nan nan nan nan nan nan 24 23 12 24 32 35 36 37 31 27 25 22 22 20 18 18 15 14 17 nan nan nan nan nan nan nan nan nan nan nan nan nan nan nan nan nan nan nan nan nan nan
nan nan nan nan nan nan nan nan 23 14 26 32 32 31 34 35 31 28 27 27 24 20 nan nan 19 18 24 nan nan nan nan nan nan nan nan nan nan nan nan nan nan nan nan nan nan nan nan nan nan
nan nan nan nan nan nan nan 29 22 24 36 39 32 25 21 27 33 38 37 34 31 nan nan nan nan nan nan nan nan nan nan nan nan nan nan nan nan nan nan nan nan nan nan nan nan nan nan nan nan
nan nan nan nan nan nan nan nan 21 31 34 29 25 20 21 22 33 36 40 39 32 nan nan nan nan nan nan nan nan nan nan nan nan nan nan nan nan nan nan nan nan nan nan nan nan nan nan nan nan
nan nan nan nan nan nan nan nan nan 19 26 27 23 22 22 24 nan 34 38 39 nan nan nan nan nan nan nan nan nan nan nan nan nan nan nan nan nan nan nan nan nan nan nan nan nan nan nan nan nan
nan nan nan nan nan nan nan nan nan 13 20 26 25 27 32 nan nan 30 31 35 nan nan nan nan nan nan nan nan nan nan nan nan nan nan nan nan nan nan nan nan nan nan nan nan nan nan nan nan nan
nan nan nan nan nan nan nan nan nan 20 21 20 23 24 nan nan nan 27 23 nan nan nan nan nan nan nan nan 34 39 43 47 48 46 46 51 53 nan nan nan nan nan nan nan nan nan nan nan nan nan
nan nan nan nan nan nan nan nan nan 23 22 28 32 29 nan nan nan nan nan nan nan nan nan nan nan nan 39 40 43 47 48 47 48 51 53 nan nan nan nan nan nan nan nan nan nan nan nan nan nan
nan nan nan nan nan nan nan nan nan nan 16 22 nan nan nan nan nan nan nan nan nan nan nan nan 42 47 43 43 45 47 44 45 52 55 55 nan nan nan nan nan nan nan nan nan nan nan nan nan nan
nan nan nan nan nan nan nan nan nan nan nan nan nan nan nan nan nan nan nan nan nan nan nan 45 51 48 45 46 48 46 44 54 54 55 nan nan nan nan nan nan nan nan nan nan nan nan nan nan nan
nan nan nan nan nan nan nan nan nan nan nan nan nan nan nan nan nan nan nan nan nan nan 45 47 53 49 50 52 51 48 55 56 nan nan nan nan nan nan nan nan nan nan nan nan nan nan nan nan nan
nan nan nan nan nan nan nan nan nan nan nan nan nan nan nan nan nan nan nan nan nan 51 47 49 50 50 54 55 51 52 nan nan nan nan nan nan nan nan nan nan nan nan nan nan nan nan nan nan nan
nan nan nan nan nan nan nan nan nan nan nan nan nan nan nan nan nan nan nan 51 53 53 47 50 45 48 54 51 50 nan nan nan nan nan nan nan nan nan nan nan nan nan nan nan nan nan nan nan nan
nan nan nan nan nan nan nan nan nan nan nan nan nan nan nan nan nan nan 45 42 52 56 65 33 47 46 44 50 nan nan nan nan nan nan nan nan nan nan nan nan nan nan nan nan nan nan nan nan nan
nan nan nan nan nan nan nan nan nan nan nan nan nan nan nan nan 45 43 41 47 54 48 62 49 46 39 45 49 nan nan nan nan nan nan nan nan nan nan nan nan nan nan nan nan nan nan nan nan nan
nan nan nan nan nan nan nan nan nan nan nan nan nan 43 44 48 50 48 43 49 57 56 51 50 36 34 nan nan nan nan nan nan nan nan nan nan nan nan nan nan nan nan nan nan nan nan nan nan nan
nan nan nan nan nan nan nan nan nan nan nan nan nan nan 51 52 51 48 50 51 63 nan 33 32 nan nan nan nan nan nan nan nan nan nan nan nan nan nan nan nan nan nan nan nan nan nan nan nan nan
nan nan nan nan nan nan nan nan nan nan nan nan nan 50 52 55 59 57 57 60 58 nan nan nan nan nan nan nan nan nan nan nan nan nan nan nan nan nan nan nan nan nan nan nan nan nan nan nan nan
Wind_Direction
nan nan nan nan nan nan nan nan nan 304 43 45 335 6 339 315 337 339 320 322 314 311 310 309 304 297 295 296 297 299 295 295 295 295 296 294 293 293 292 292 292 289 288 286 284 282 279 273 269
nan nan nan nan nan nan nan nan 4 8 25 340 319 345 328 318 318 318 325 337 317 312 314 314 315 309 311 308 306 306 304 302 301 302 301 301 302 301 300 300 298 293 290 288 288 287 285 283 282
nan nan nan nan nan nan nan nan 44 52 27 20 16 23 320 315 311 318 327 nan 323 308 313 314 303 302 307 303 301 299 297 297 298 298 299 300 298 298 299 296 296 294 290 288 286 282 279 281 282
nan nan nan nan nan nan nan nan nan 45 28 30 7 7 339 333 312 307 313 333 333 335 313 300 297 298 305 303 299 295 291 291 289 291 291 287 289 289 285 283 284 287 284 281 279 277 280 276 274
nan nan nan nan nan nan nan 336 323 352 9 15 13 6 326 335 314 311 321 328 341 339 334 323 309 298 294 293 289 287 284 282 285 286 284 284 290 288 285 287 285 288 283 275 277 276 279 279 276
nan nan nan nan nan 246 235 nan 302 329 16 356 355 350 327 316 318 329 327 336 341 328 320 315 312 304 298 294 290 284 283 284 282 283 283 284 287 288 287 284 282 280 278 274 269 270 272 273 273
nan nan nan nan nan nan 284 308 320 329 3 354 347 334 329 318 325 323 323 331 327 321 315 313 308 305 301 297 292 288 285 282 280 275 271 274 277 281 278 277 275 275 276 278 277 275 274 272 272
nan nan nan nan nan nan 286 295 303 340 358 342 339 342 339 341 327 316 325 318 315 316 317 317 313 303 296 292 295 292 287 283 277 271 nan nan nan 276 278 276 278 278 272 274 275 277 279 278 277
nan nan nan nan nan nan 284 288 292 357 318 333 338 335 331 324 317 318 322 317 316 319 311 309 306 303 301 298 296 292 290 286 nan nan nan nan nan nan nan nan nan nan nan nan 286 288 nan nan nan
nan nan nan nan nan nan 296 294 316 290 309 336 322 323 331 317 325 335 340 331 320 315 314 319 315 311 311 307 304 303 303 nan nan nan nan nan nan nan nan nan nan nan nan nan nan nan nan nan nan
nan nan nan nan nan nan nan 267 290 283 325 341 328 332 340 316 331 340 341 331 326 313 318 328 325 324 330 319 313 nan nan nan nan nan nan nan nan nan nan nan nan nan nan nan nan nan nan nan nan
nan nan nan nan nan nan nan nan 298 324 335 333 332 338 335 323 339 340 340 328 318 321 335 330 330 328 nan nan nan nan nan nan nan nan nan nan nan nan nan nan nan nan nan nan nan nan nan nan nan
nan nan nan nan nan nan nan nan 299 332 308 321 322 330 337 329 334 333 333 324 323 321 328 330 322 326 313 nan nan nan nan nan nan nan nan nan nan nan nan nan nan nan nan nan nan nan nan nan nan
nan nan nan nan nan nan nan nan 288 325 325 328 336 334 341 329 326 314 324 326 329 320 nan nan 315 318 304 nan nan nan nan nan nan nan nan nan nan nan nan nan nan nan nan nan nan nan nan nan nan
nan nan nan nan nan nan nan 279 337 329 334 333 337 338 349 330 323 331 331 328 331 nan nan nan nan nan nan nan nan nan nan nan nan nan nan nan nan nan nan nan nan nan nan nan nan nan nan nan nan
nan nan nan nan nan nan nan nan 300 322 323 325 329 337 340 337 340 331 330 330 335 nan nan nan nan nan nan nan nan nan nan nan nan nan nan nan nan nan nan nan nan nan nan nan nan nan nan nan nan
nan nan nan nan nan nan nan nan nan 303 319 323 326 333 336 335 nan 336 335 342 nan nan nan nan nan nan nan nan nan nan nan nan nan nan nan nan nan nan nan nan nan nan nan nan nan nan nan nan nan
nan nan nan nan nan nan nan nan nan 314 311 329 337 330 341 nan nan 346 349 351 nan nan nan nan nan nan nan nan nan nan nan nan nan nan nan nan nan nan nan nan nan nan nan nan nan nan nan nan nan
nan nan nan nan nan nan nan nan nan 303 285 330 331 332 nan nan nan 344 345 nan nan nan nan nan nan nan nan 312 306 299 304 309 307 309 305 306 nan nan nan nan nan nan nan nan nan nan nan nan nan
nan nan nan nan nan nan nan nan nan 296 333 344 334 335 nan nan nan nan nan nan nan nan nan nan nan nan 312 310 309 310 312 312 312 310 308 nan nan nan nan nan nan nan nan nan nan nan nan nan nan
nan nan nan nan nan nan nan nan nan nan 294 299 nan nan nan nan nan nan nan nan nan nan nan nan 308 307 308 309 313 311 313 314 313 312 309 nan nan nan nan nan nan nan nan nan nan nan nan nan nan
nan nan nan nan nan nan nan nan nan nan nan nan nan nan nan nan nan nan nan nan nan nan nan 303 303 306 308 311 308 303 312 316 315 314 nan nan nan nan nan nan nan nan nan nan nan nan nan nan nan
nan nan nan nan nan nan nan nan nan nan nan nan nan nan nan nan nan nan nan nan nan nan 304 302 300 305 308 306 305 307 309 317 nan nan nan nan nan nan nan nan nan nan nan nan nan nan nan nan nan
nan nan nan nan nan nan nan nan nan nan nan nan nan nan nan nan nan nan nan nan nan 290 292 296 299 304 303 302 301 303 nan nan nan nan nan nan nan nan nan nan nan nan nan nan nan nan nan nan nan
nan nan nan nan nan nan nan nan nan nan nan nan nan nan nan nan nan nan nan 280 281 279 284 292 288 293 297 295 298 nan nan nan nan nan nan nan nan nan nan nan nan nan nan nan nan nan nan nan nan
nan nan nan nan nan nan nan nan nan nan nan nan nan nan nan nan nan nan 282 274 273 277 286 266 285 292 294 295 nan nan nan nan nan nan nan nan nan nan nan nan nan nan nan nan nan nan nan nan nan
nan nan nan nan nan nan nan nan nan nan nan nan nan nan nan nan 278 280 274 275 282 278 282 274 274 286 299 303 nan nan nan nan nan nan nan nan nan nan nan nan nan nan nan nan nan nan nan nan nan
nan nan nan nan nan nan nan nan nan nan nan nan nan 279 278 277 278 279 278 276 273 264 272 267 273 292 nan nan nan nan nan nan nan nan nan nan nan nan nan nan nan nan nan nan nan nan nan nan nan
nan nan nan nan nan nan nan nan nan nan nan nan nan nan 288 290 289 287 286 279 283 nan 265 275 nan nan nan nan nan nan nan nan nan nan nan nan nan nan nan nan nan nan nan nan nan nan nan nan nan
nan nan nan nan nan nan nan nan nan nan nan nan nan 293 293 298 296 298 294 293 281 nan nan nan nan nan nan nan nan nan nan nan nan nan nan nan nan nan nan nan nan nan nan nan nan nan nan nan nan